Lapse_Rate
6.5 6.5 6.5 6.5 6.5 6.5 6.5 6.5 6.5 6.5 6.5 6.5 6.5 6.5 6.6 6.5 5.1 5.4 5.8 6.4 5.4 5.1 4.9 4.6 4.1 3.9 4.6 5.3 5.9 5.7 5.9 5.6 5.8 5.9 5.2 4.6 4.5 4.7 4.6 3.5 3.0 2.7 3.2 3.4
6.5 6.5 6.5 6.5 6.5 6.5 6.5 6.5 6.5 6.5 6.5 6.5 6.5 6.7 6.6 6.9 6.0 6.2 6.1 6.6 5.6 5.7 6.2 4.9 3.4 3.3 4.2 5.0 5.8 6.4 5.9 5.8 5.7 5.4 5.1 5.0 4.7 4.1 4.2 3.7 3.0 2.7 2.9 2.9
6.5 6.5 6.5 6.5 6.5 6.5 6.5 6.5 6.5 6.5 6.5 6.5 6.5 6.5 6.5 6.6 6.6 6.4 6.0 5.7 4.6 5.0 4.4 3.5 2.7 3.1 2.9 3.1 4.4 6.4 6.4 5.7 5.4 5.4 5.2 5.2 4.9 4.7 4.0 4.2 4.2 3.5 2.9 2.5
6.5 6.5 6.5 6.5 6.5 6.5 6.5 6.5 6.5 6.5 6.5 6.5 6.5 6.5 6.7 7.1 6.7 6.7 6.0 4.6 3.3 3.8 4.3 3.7 3.5 3.1 3.3 3.0 3.3 4.0 4.6 5.3 6.1 5.4 4.8 4.9 5.2 4.7 4.3 4.0 3.7 3.6 3.5 2.8
6.5 6.5 6.5 6.5 6.5 6.5 6.5 6.5 6.5 6.5 6.5 6.4 6.5 6.6 6.3 6.8 7.5 7.4 6.1 3.3 2.3 3.0 4.1 3.6 4.1 4.5 3.0 3.6 4.0 3.9 4.3 3.3 4.2 5.0 4.9 4.5 4.6 4.4 3.9 3.6 3.1 3.3 3.4 3.1
6.5 6.5 6.5 6.5 6.5 6.9 6.5 6.5 6.5 6.5 6.5 6.5 6.9 6.5 6.5 6.7 5.3 4.5 4.3 3.6 3.7 4.0 4.4 3.9 4.5 3.9 3.1 3.4 4.2 4.4 4.2 3.8 3.9 4.2 4.1 3.2 3.2 2.8 2.5 3.2 3.0 2.7 2.7 3.0
6.5 6.5 6.5 6.5 6.6 7.0 6.5 6.5 6.7 6.9 6.9 6.8 6.5 6.7 6.8 4.7 5.0 5.4 5.1 5.3 4.9 4.1 4.4 5.3 4.4 3.6 3.6 4.8 4.4 4.1 3.7 3.6 3.5 3.3 3.0 2.5 1.8 1.6 1.9 1.9 1.9 2.1 2.3 2.4
6.5 6.5 6.5 6.8 6.7 6.5 6.6 6.9 7.2 7.2 7.2 7.2 7.5 7.6 7.3 6.3 6.6 6.8 6.3 6.2 5.9 5.4 5.4 5.7 5.1 4.7 5.4 4.7 4.5 4.3 4.0 3.7 3.6 4.2 4.2 3.7 3.2 2.7 2.3 2.3 2.1 1.7 1.4 1.3
6.5 6.5 6.7 7.1 6.7 7.0 7.1 6.8 7.0 7.3 7.3 7.6 7.6 6.9 6.4 6.9 6.9 7.0 7.1 7.1 6.8 5.7 5.1 4.7 4.4 4.6 5.0 6.0 5.9 5.1 4.3 3.8 4.4 4.6 5.0 5.5 5.7 4.7 4.3 4.1 3.9 3.5 3.1 2.3
6.5 6.5 6.5 6.8 6.9 7.1 6.9 6.6 6.6 6.7 6.8 7.8 6.8 7.3 7.0 7.2 7.3 7.4 7.3 7.4 7.0 5.9 5.1 4.2 4.0 4.5 5.4 5.5 4.6 3.6 2.8 2.7 2.9 3.1 2.7 3.0 3.4 4.2 2.5 2.3 3.6 3.9 3.7 3.2
6.5 6.4 6.7 7.0 7.0 6.9 6.8 6.9 6.5 6.3 5.4 6.4 6.8 6.8 6.9 6.8 6.6 6.3 6.2 6.4 6.5 6.2 6.1 6.3 5.2 3.9 2.9 2.9 4.2 3.4 3.3 3.7 3.3 3.3 3.0 2.6 2.2 3.4 3.1 2.8 3.1 2.6 2.4 3.1
6.5 6.6 6.6 6.7 6.8 6.9 6.9 6.9 6.8 6.9 6.7 6.5 6.7 6.7 6.4 6.4 6.0 5.8 6.1 5.9 5.4 5.2 4.6 4.7 4.3 4.9 5.0 4.0 3.1 2.5 2.2 2.4 3.2 3.6 4.6 5.0 3.9 3.5 4.0 4.1 4.0 3.9 3.8 3.8
6.6 6.8 6.8 6.9 6.9 6.8 6.9 6.8 6.9 6.8 6.8 6.8 6.6 6.7 6.7 6.6 6.4 7.3 5.9 5.8 5.2 4.5 4.1 4.1 4.0 4.2 5.4 5.3 4.7 3.7 3.6 3.6 3.4 3.4 3.9 4.8 4.6 4.6 4.7 5.2 4.9 4.0 4.1 4.1
6.8 6.9 6.8 6.8 6.8 6.7 6.5 6.7 6.7 6.4 6.7 6.6 6.6 6.4 6.3 6.2 5.9 5.7 5.8 6.0 6.2 6.4 6.1 5.2 4.6 5.2 6.0 5.8 4.6 4.6 4.7 4.8 4.1 4.1 4.0 4.1 4.2 4.5 4.8 4.3 3.7 3.3 4.2 4.2
7.1 7.2 6.8 7.1 6.9 6.8 6.6 6.5 6.9 6.8 7.1 7.1 7.0 6.3 6.5 6.6 6.4 6.4 6.8 6.6 6.2 5.3 4.9 4.6 4.4 4.4 4.7 4.4 3.9 3.8 4.4 4.4 3.8 3.5 4.2 4.5 4.1 4.2 4.9 4.9 4.8 4.5 4.5 4.5
7.2 7.4 7.6 7.3 7.2 7.2 7.4 7.1 7.0 7.2 7.3 7.4 7.6 7.7 7.7 6.5 6.0 5.8 5.3 4.4 2.8 4.3 4.4 4.2 4.2 4.8 3.9 3.7 3.3 3.0 3.2 4.9 4.4 3.2 3.3 3.3 3.5 3.7 3.9 4.0 3.9 4.8 4.2 4.4
7.4 7.1 7.6 7.6 7.8 7.8 7.7 7.8 7.7 7.7 7.4 7.6 7.4 6.5 5.7 6.0 5.7 5.5 6.2 6.1 5.3 4.6 4.5 4.7 5.2 4.9 4.3 3.5 3.0 2.7 2.6 2.8 4.2 2.4 2.0 2.1 2.4 2.6 3.1 3.4 3.5 3.5 3.6 4.4
7.9 7.9 8.2 8.2 8.0 7.9 7.8 7.6 8.0 7.4 7.3 7.8 7.4 6.7 5.9 5.7 6.2 6.4 6.0 5.8 5.2 4.7 4.4 4.5 5.1 4.3 3.9 3.6 3.0 2.6 2.3 2.2 2.5 2.4 2.7 2.5 2.2 2.0 1.9 2.4 2.4 2.4 2.6 3.3
7.0 6.9 7.5 8.2 7.8 7.7 7.6 7.5 7.7 8.0 7.7 7.4 7.0 6.9 6.8 6.3 6.4 6.8 6.7 5.3 4.6 4.8 5.4 5.5 6.3 5.2 4.7 5.9 3.9 3.0 2.9 2.7 2.6 2.6 2.9 3.7 2.5 2.7 2.5 2.5 2.8 2.8 3.0 3.7
6.6 6.9 7.0 7.7 7.2 7.3 7.1 7.5 7.3 7.4 7.7 7.6 7.3 6.8 6.9 7.3 6.9 6.6 6.8 6.6 6.4 7.1 7.5 6.4 5.2 5.1 5.6 6.4 6.3 4.0 3.5 3.2 3.3 3.3 3.6 3.4 3.5 3.4 3.3 4.2 4.1 3.9 3.7 4.5
5.9 6.3 6.8 7.4 7.6 7.1 7.4 7.5 7.0 7.1 7.5 7.8 7.7 7.5 7.2 7.4 7.1 7.0 7.2 6.5 7.1 8.5 8.6 8.1 6.6 5.9 6.6 8.4 5.4 4.2 3.9 3.8 3.9 3.6 3.9 4.1 4.3 4.4 4.3 4.4 4.5 4.8 4.8 4.7
6.3 6.5 6.6 6.9 7.2 7.0 7.5 7.5 7.1 7.4 7.7 7.6 8.1 7.9 7.3 7.1 7.4 7.2 7.6 7.5 7.4 9.2 8.2 7.4 6.8 8.6 8.7 8.3 5.4 4.6 4.4 4.4 4.4 4.3 4.1 4.2 4.4 4.4 4.5 5.3 5.4 5.7 5.4 5.0
6.3 6.6 6.9 6.7 7.1 6.9 7.1 7.2 6.9 7.5 7.6 7.6 8.2 7.8 7.7 7.5 7.7 7.7 7.3 7.5 8.5 8.6 8.1 7.4 8.9 9.2 9.1 6.5 5.4 5.1 4.8 4.7 4.7 4.7 4.5 4.1 4.9 5.3 5.3 5.8 6.1 6.0 5.7 5.7
7.1 6.8 6.6 7.1 6.6 7.0 6.7 7.4 6.8 7.7 7.9 7.8 8.2 7.8 8.1 7.9 7.6 7.3 7.5 8.5 8.9 9.0 8.6 8.3 9.1 9.4 8.9 5.7 5.3 5.0 4.9 4.7 4.6 4.9 4.6 6.4 4.7 5.1 4.5 4.5 4.8 5.8 5.6 5.4
7.4 7.7 7.1 7.2 7.4 7.9 7.9 7.8 7.4 7.5 7.1 7.4 7.6 7.5 7.6 7.9 7.2 7.8 7.4 7.4 8.6 8.4 7.4 7.0 8.4 8.4 5.6 4.9 4.9 4.6 4.7 4.8 4.9 6.6 5.3 4.5 4.7 4.6 4.7 4.8 4.5 4.7 4.9 3.6
6.8 7.5 7.8 8.0 8.3 8.3 8.4 7.8 7.6 8.0 8.3 8.1 7.8 7.6 7.6 7.7 7.1 7.2 7.0 8.1 7.3 7.9 6.0 5.8 5.7 6.8 5.6 5.0 5.2 4.8 4.6 4.3 4.4 4.3 5.4 4.6 4.3 4.0 4.0 3.6 2.8 1.8 2.5 1.8
7.4 8.6 7.4 7.7 7.7 8.2 7.9 8.2 8.1 7.9 8.4 8.0 7.8 7.8 8.4 8.2 7.7 7.8 7.7 7.0 6.9 6.9 6.9 6.6 5.5 5.8 6.0 5.4 4.7 4.3 4.1 4.0 4.6 4.8 4.4 3.3 2.4 2.0 2.2 2.2 2.0 1.4 0.6 0.3
Wind_Speed
14 15 14 20 23 23 16 14 11 22 21 23 25 22 20 20 8 7 6 4 6 4 2 3 2 3 5 4 4 6 10 10 11 10 9 10 10 10 11 11 10 9 11 11
16 16 17 21 23 26 22 19 21 23 27 21 21 23 20 19 13 3 6 0 5 4 3 3 4 3 2 3 5 5 7 8 8 9 10 9 9 9 9 11 13 14 11 11
15 19 15 16 22 25 25 20 16 19 24 20 22 24 22 21 18 17 6 6 6 3 3 4 4 3 3 3 4 3 3 5 6 8 10 11 11 10 11 10 9 10 12 13
12 14 14 15 17 17 21 26 19 20 20 21 20 20 19 19 17 20 12 5 7 5 4 4 4 4 3 6 6 6 5 4 3 5 5 8 9 9 10 9 10 9 10 10
4 9 15 12 9 11 12 21 21 15 19 19 22 18 20 14 16 17 12 6 7 7 4 6 4 4 7 6 6 8 7 6 6 4 4 3 4 6 5 6 6 7 7 10
5 10 14 7 21 22 16 14 9 15 18 19 19 15 14 8 3 5 5 7 7 8 7 7 6 7 8 8 8 8 7 6 6 5 4 5 5 4 2 3 3 3 4 4
9 6 8 19 26 16 6 8 29 25 23 20 14 10 17 11 12 6 7 11 11 9 6 6 7 8 9 8 8 5 5 6 7 7 7 6 7 6 5 5 5 4 4 3
6 5 6 32 30 15 18 36 32 34 27 21 20 18 10 11 12 11 13 13 9 9 10 9 7 9 10 9 5 6 7 9 10 9 5 5 7 7 8 7 6 5 4 3
3 7 24 21 23 27 30 34 40 26 29 21 18 19 13 14 16 13 13 12 11 11 12 12 13 10 10 8 9 9 10 11 10 11 10 10 7 7 7 5 4 3 3 3
9 6 19 24 21 24 29 21 8 14 18 12 12 16 14 15 15 15 15 15 13 14 14 13 13 13 11 9 9 10 11 10 7 10 10 10 9 8 8 6 4 4 4 3
7 9 22 15 25 29 28 32 24 11 4 10 17 18 18 16 17 17 16 14 13 13 12 14 14 15 14 13 11 12 11 9 8 6 7 10 11 7 8 11 10 5 5 5
4 20 11 19 20 27 28 28 26 25 24 21 19 20 20 18 17 16 14 13 13 14 15 15 17 16 15 14 13 12 11 9 9 8 7 6 7 8 20 21 21 20 20 14
7 17 13 17 18 26 25 26 26 27 23 22 20 18 19 18 18 20 18 16 15 15 15 15 16 17 15 14 13 13 11 10 8 10 8 7 7 5 4 7 16 21 19 19
18 14 20 21 17 21 23 24 27 25 22 20 18 19 19 19 19 19 17 15 14 15 15 15 16 16 14 13 13 12 11 20 8 7 7 6 7 7 6 6 6 6 12 14
19 16 12 14 18 22 21 21 23 22 19 19 19 20 19 20 19 17 15 14 14 15 16 15 16 15 13 12 12 13 10 9 7 6 7 8 6 6 6 6 5 5 5 9
17 16 17 18 18 18 18 21 20 18 19 19 18 18 17 15 15 14 14 14 16 14 14 14 14 13 13 12 11 10 9 18 13 6 6 6 6 6 5 5 4 5 5 6
14 16 17 17 15 16 17 15 15 16 16 17 16 15 16 14 14 14 13 12 12 12 12 12 11 10 12 12 11 7 6 7 14 6 6 5 4 5 4 4 4 4 4 6
12 12 13 14 15 15 16 16 14 15 15 14 13 13 14 14 13 11 10 10 10 11 12 11 10 9 9 9 9 7 6 6 5 5 5 4 3 3 4 4 4 4 4 4
14 14 14 15 14 13 13 13 14 13 12 12 12 12 11 11 11 9 5 8 11 10 9 9 16 12 8 12 9 5 6 6 6 5 5 8 4 4 3 3 4 4 4 5
12 12 13 14 13 13 12 11 12 12 12 11 10 10 11 10 9 9 8 8 7 6 7 9 8 8 8 8 12 4 5 5 5 4 5 4 5 5 4 7 6 4 4 4
12 13 13 12 11 11 11 10 11 11 11 10 10 9 9 9 8 8 6 5 8 10 10 11 7 6 5 9 6 4 4 4 4 4 4 4 4 4 4 4 4 4 4 4
8 9 10 11 10 10 9 7 8 9 8 9 8 8 8 8 8 7 5 6 5 15 7 4 4 12 10 13 4 4 4 4 4 3 3 3 3 3 3 4 4 4 4 4
8 9 10 9 9 9 7 6 7 9 6 8 8 8 7 5 5 5 6 7 6 10 5 5 12 16 16 5 4 4 4 4 4 4 3 3 4 4 4 4 4 4 4 4
8 10 10 10 7 7 6 7 7 10 5 7 6 8 6 5 3 3 5 10 15 13 9 9 12 16 13 4 4 4 4 4 3 3 3 9 3 4 3 4 4 4 3 5
7 7 7 7 7 6 7 7 8 6 6 7 6 6 8 5 3 5 4 5 14 11 5 12 16 15 4 4 5 4 4 4 4 5 4 4 4 5 5 6 4 5 5 2
8 6 6 5 5 4 4 5 6 5 6 7 6 6 8 4 4 6 5 10 7 11 5 5 4 7 6 5 6 5 5 5 5 5 7 5 5 5 5 5 5 4 5 5
6 11 6 4 3 3 4 6 6 5 5 6 7 7 6 4 6 8 10 6 6 6 5 4 3 8 7 7 6 6 6 5 9 7 5 4 4 4 5 6 6 5 4 4
Wind_Direction
260 277 290 297 298 298 288 266 256 280 292 292 303 313 317 294 190 191 227 240 139 127 101 128 112 3 316 301 190 174 186 187 187 196 189 186 183 197 195 179 187 175 186 202
276 280 277 280 283 286 275 266 261 263 269 275 288 296 306 312 288 216 156 46 121 104 83 83 76 57 9 350 331 151 173 187 183 175 181 189 191 195 206 191 185 177 187 187
275 267 280 276 260 261 276 265 258 259 262 270 269 279 290 297 301 298 257 146 124 79 58 78 74 59 34 24 358 105 146 183 183 176 185 188 196 198 206 212 188 206 198 182
261 281 261 248 261 266 267 271 263 260 273 279 265 258 270 277 283 296 310 121 118 105 69 53 55 68 54 47 57 58 61 33 142 162 172 188 196 191 194 193 192 191 203 191
251 263 271 292 30 349 321 294 289 276 273 252 261 264 254 264 267 275 275 117 94 90 79 64 55 79 82 65 65 55 58 53 33 50 98 161 196 194 171 173 182 188 199 187
299 288 292 55 357 336 311 271 288 7 335 335 332 247 255 243 29 104 98 96 95 76 65 58 49 65 71 60 50 43 36 35 42 41 64 82 74 55 33 107 144 156 192 197
321 303 271 14 353 326 263 300 319 311 302 296 290 294 312 114 100 105 81 76 71 63 59 53 65 76 72 71 62 49 47 52 54 53 59 57 70 68 52 46 56 62 96 85
336 296 305 350 336 336 298 289 282 287 283 279 273 275 298 112 105 93 82 77 68 66 51 35 54 71 79 77 71 63 60 57 49 43 47 63 73 75 78 78 71 41 50 47
278 313 307 310 307 297 290 276 272 257 261 251 270 282 150 120 104 95 86 75 67 66 55 41 37 36 60 54 63 66 63 55 52 49 40 33 47 64 73 62 72 90 83 56
307 345 323 314 315 319 323 330 296 236 242 244 248 109 101 91 88 79 72 69 64 62 57 48 36 36 36 51 60 66 62 51 49 62 52 42 40 40 49 40 39 40 37 71
294 316 318 333 340 339 347 18 24 46 98 104 95 86 84 75 74 71 67 64 64 63 59 57 54 46 36 32 46 58 55 52 49 55 66 66 58 51 59 56 50 37 13 31
334 335 330 331 338 350 8 18 26 39 45 52 65 78 78 74 70 70 72 67 65 59 55 50 49 47 46 44 47 53 50 42 41 43 44 61 79 73 66 64 54 50 46 44
340 334 343 345 354 7 16 18 26 35 36 44 46 59 69 74 69 70 65 60 57 55 52 49 46 43 38 40 49 51 51 45 44 41 37 38 38 50 64 70 60 48 42 40
349 346 2 1 3 5 15 17 26 32 32 36 42 50 54 58 55 53 52 52 55 56 57 54 49 44 32 38 43 50 53 55 50 47 44 39 36 44 43 46 41 30 36 39
349 356 354 348 6 11 15 19 27 29 25 30 37 42 40 46 49 48 46 48 48 48 46 45 47 38 27 31 40 41 44 44 38 37 40 42 36 39 39 45 55 47 26 29
342 352 357 7 6 11 13 18 22 21 24 26 31 36 44 47 48 51 48 42 46 40 34 36 38 34 26 29 34 36 35 42 45 37 35 35 35 35 31 29 32 47 36 20
355 359 358 4 3 8 14 14 20 18 22 24 26 27 36 38 44 39 36 47 47 45 37 32 33 28 31 28 30 29 26 27 35 30 31 26 32 31 24 28 31 29 26 11
358 357 0 3 2 2 7 10 13 19 17 13 20 25 31 32 32 33 29 26 39 43 33 19 26 19 28 31 26 19 18 14 19 25 12 12 24 25 25 24 21 17 3 6
358 357 358 4 2 3 3 3 5 10 11 13 18 21 26 28 21 13 30 35 31 28 27 19 19 14 16 15 35 15 13 11 7 7 6 14 12 11 13 15 11 6 0 6
353 356 353 356 1 2 357 1 1 6 5 9 11 16 14 17 13 8 10 46 30 14 10 21 10 6 360 351 28 10 6 3 359 359 357 8 356 0 358 2 360 0 360 3
343 342 344 346 353 353 355 354 357 357 357 1 4 7 0 359 2 359 10 22 10 355 7 14 8 343 341 2 27 13 1 356 353 353 353 349 349 350 347 348 347 344 346 354
331 333 333 340 342 342 339 341 352 341 352 351 354 357 354 352 352 354 359 15 355 349 353 354 335 343 346 11 1 360 354 349 338 343 345 344 335 326 319 328 334 331 330 334
324 328 330 332 327 322 320 339 344 336 337 341 349 351 346 337 338 353 351 337 353 334 359 340 333 342 348 14 352 349 345 335 333 329 328 319 312 322 315 317 311 316 316 313
321 326 320 317 315 318 334 336 335 326 332 332 335 344 335 331 333 341 330 341 333 338 347 329 333 340 6 356 341 332 322 313 306 307 289 319 311 317 311 293 286 287 289 299
312 300 300 306 314 322 322 333 321 321 339 328 335 329 343 325 338 324 332 327 335 341 337 343 342 340 355 336 323 312 315 316 308 311 334 307 304 308 305 302 302 293 280 273
303 299 292 294 303 311 325 316 308 327 328 333 332 322 321 322 338 335 328 333 343 334 335 327 317 339 337 323 325 330 325 320 319 306 312 311 298 298 300 300 293 278 282 274
295 311 306 312 303 317 309 306 329 316 326 321 305 304 326 333 334 334 329 332 325 322 320 323 342 327 326 323 335 321 316 312 314 312 321 311 291 282 287 288 287 282 273 271